Location: Arthez
(43.0833°N, 0.2500°W)
Time: 21:32:04
(UTC+00:00)

Cosmos 2333 Rocket - Pass Details

Date: 23 October 2021
Orbit: 837 x 865 km, 70.8° (Epoch: 06 December)

Event Time Altitude Azimuth Distance (km) Brightness Sun altitude
Rises 18:31:38 0° 168° (SSE) 3,379 5.2 -16.4°
Reaches altitude 10° 18:34:26 10° 156° (SSE) 2,453 4.4 -16.9°
Enters shadow 18:37:44 24° 122° (ESE) 1,701 3.3 -17.5°
